www.pogodaiklimat.ru
ПОГОДА в Элизабеттауне
Время
и дата
02:35 07.02
02:55 07.02
03:15 07.02
03:35 07.02
03:55 07.02
04:15 07.02
04:35 07.02
04:55 07.02
05:15 07.02
05:35 07.02
05:55 07.02
06:15 07.02
06:35 07.02
06:55 07.02
07:15 07.02
07:35 07.02
07:55 07.02
08:15 07.02
08:35 07.02
08:55 07.02
09:15 07.02
09:35 07.02
09:55 07.02
10:15 07.02
10:35 07.02
10:55 07.02
11:15 07.02
11:35 07.02
11:55 07.02
12:15 07.02
12:35 07.02
12:55 07.02
13:15 07.02
13:35 07.02
13:55 07.02
14:15 07.02
14:35 07.02
14:55 07.02
15:15 07.02
15:35 07.02
15:55 07.02
16:15 07.02
16:35 07.02
16:55 07.02
17:15 07.02
17:35 07.02
17:55 07.02
18:15 07.02
Ветер
(напр.,м/с)
Видим. Явления Облачность Т
(С)
Тd
(С)
f
(%)
Тe
(С)
Тes
(С)
Комфортность P
(гПа)
Po
(гПа)
Тmin
(С)
Tmax
(С)
R
(мм)
R24
(мм)
S
(см)
Ю 3 16 км ясно +6.9 -2.0 53 +4 +4 990.6
ЮЗ 3 16 км ясно +5.5 -1.9 59 +3 +3 990.9
ЮЗ 3 16 км ясно +6.5 -2.5 53 +4 +4 990.9
ЮЗ 2 16 км ясно +6.0 -2.6 54 +4 +4 991.2
ЮЗ 2 16 км ясно +6.6 -2.6 52 +5 +5 991.2
ЮЗ 2 16 км ясно +6.6 -2.5 52 +5 +5 991.2
Ю 2 16 км ясно +6.5 -2.0 55 +5 +5 991.2
Ю 3 16 км ясно +7.6 -1.6 52 +5 +5 991.2
Ю 4 16 км ясно +7.8 -1.6 51 +5 +5 991.2
Ю 5 16 км ясно +8.1 -1.5 51 +5 +5 990.9
Ю 5 16 км ясно +8.2 -1.5 50 +5 +5 991.2
Ю 4 16 км ясно +8.3 -1.0 52 +6 +6 991.2
ЮЗ 4 16 км ясно +8.1 -0.3 55 +5 +5 991.5
ЮЗ 4 16 км ясно +9.0 0.0 53 +6 +6 991.5 +5.5 +9.0
Ю 4 16 км ясно +8.5 0.0 55 +6 +6 991.5
Ю 4 16 км 5/5 1800 м +9.3 +0.5 54 +7 +7 991.9
Ю 4 16 км 8/8 1800 м +9.6 +1.0 55 +7 +7 992.2
Ю 5 16 км 10/10 1800 м +10.4 +1.3 53 +8 +8 992.5
Ю 4 16 км 10/8 1800 m
[Ac]
+11.1 +1.8 53 +9 +9 992.5
Ю 5 16 км 8/8 1800 m
[Ac]
+11.3 +1.9 52 +9 +9 992.9
Ю 6
{8}
16 км 8/8 1440 m
[Ac]
+12.2 +2.0 50 +10 +10 993.2
ЮЗ 5 16 км 10/10 1500 м +11.8 +2.3 52 +10 +10 993.2
ЮЗ 6
{8}
16 км 10/10 1500 м +12.2 +2.6 52 +10 +10 993.2
Ю 5 16 км 10/10 1500 м +13.1 +3.1 51 +11 +11 993.2
Ю 7 16 км 10/10 1500 м +13.9 +3.5 49 +12 +12 993.2
Ю 7 16 км 10/10 1500 м +14.6 +3.8 48 +13 +13 993.2
ЮЗ 7
{10}
16 км 10/10 1500 м +15.0 +4.2 48 +13 +13 993.5
ЮЗ 7
{11}
16 км 10/10 1500 м +15.1 +4.4 49 +13 +13 993.2
ЮЗ 7 16 км 10/10 1500 м +15.2 +4.4 48 +14 +14 993.5
ЮЗ 8 16 км 10/10 1500 м +15.6 +4.7 48 +14 +14 993.2
ЮЗ 6
{9}
16 км 10/10 1500 м +15.5 +5.1 50 +14 +14 993.2
ЮЗ 7
{9}
16 км 10/10 1500 м +15.8 +5.6 51 +14 +14 993.2 +8.5 +15.8
ЮЗ 7 16 км 8/8 1500 м +15.8 +6.0 52 +14 +15 992.2
ЮЗ 9
{10}
16 км 5/5 1800 м +17.2 +6.4 49 +16 +16 991.9
ЮЗ 8
{11}
16 км ясно +17.2 +6.6 50 +16 +17 992.2
ЮЗ 6 16 км ясно +16.6 +6.6 52 +16 +18 992.2
ЮЗ 6 16 км 8/8 1500 м +17.2 +7.0 51 +16 +17 991.9
ЮЗ 7
{10}
16 км 5/5 1500 м +17.0 +7.0 52 +16 +17 991.5
ЮЗ 6
{9}
16 км 5/5 1320 м +17.2 +7.1 51 +16 +17 991.9
ЮЗ 7 16 км 5/5 1320 м +17.0 +7.0 52 +16 +17 991.9
ЮЗ 8
{10}
16 км 8/8 1320 м +17.1 +7.4 53 +16 +16 992.2
ЮЗ 7 16 км 8/8 1320 м +16.7 +7.3 54 +16 +16 992.2
ЮЗ 5 16 км 10/10 1440 м +17.0 +7.5 54 +16 +16 992.2
ЮЗ 4 16 км 8/8 1440 м +16.2 +7.2 55 +16 +16 992.5
ЮЗ 5 16 км 8/8 1440 м +16.3 +7.2 55 +15 +16 992.5
ЮЗ 3 16 км 10/10 1440 м +16.1 +7.2 56 +16 +16 992.9
ЮЗ 4 16 км 10/10 1440 м +15.8 +7.2 57 +15 +15 992.9
З 2 16 км 10/10 1440 м +15.3 +7.3 59 +15 +15 993.2
Местоположение метеостанции Elizabethtown Addington Field Airport: широта 37.6860 долгота -85.9250 высота над уровнем моря 234 м.
В архиве по умолчанию представлена погода в Элизабеттауне за последние 1-2 суток. Обновление информации о фактической погоде в базе происходит ежечасно! Архивные данные за месяц целиком и за предыдущие месяцы Вы можете получить, выбрав интересующий диапазон дат из раскрывающегося списка и нажав кнопку "Ввод!".
Внимание! Архив погоды МЕТАР в базе сайта по станциям, не включенным в климатический монитор, хранится не более 60 дней. Нет смысла пытаться выбрать более раннюю дату.
*Определитесь, кто Вы:
Внимание! Время в таблицах - местное (без учета летнего времени). Для получения всемирного времени необходимо вычесть поправку, которая равна -5 ч.
Смотрите также архив погоды в соседних городах и на ближайших метеорологических станциях:
Партнеры нашего сайта:      
Пояснения к столбцам:
  • Ветер - указаны скорость ветра в м/с - средняя за 10 мин, порывы в срок и между сроками (в фигурных скобках) и направление, откуда дует ветер: С - северный,
  • СВ - северо-восточный, В - восточный, ЮВ - юго-восточный, Ю - южный, ЮЗ - юго-западный, З - западный, СЗ - северо-западный.
  • Видимость - горизонтальная дальность видимости в метрах или километрах. При видимости от 1 до 10 км при отсутствии осадков обычно наблюдается дымка, при ухудшении видимости до 1 км и менее - туман. В сухую погоду видимость может ухудшаться дымом, пылью или мглою.
  • Явления - указаны атмосферные явления, наблюдавшиеся в срок или в последний час перед сроком; фигурными скобками обозначены явления, наблюдавшиеся между сроками (за 1-3 часа до срока); квадратными скобками обозначены град или гололедные отложения с указанием их диаметра в мм.
  • Облачность - указаны через наклонную черту общая и нижняя облачность в баллах и высота нижней границы облаков в метрах; квадратными скобками обозначены формы облаков: Ci - перистые, Cs - перисто-слоистые, Cc - перисто-кучевые, Ac - высококучевые, As - высокослоистые, Sc - слоисто-кучевые, Ns - слоисто-дождевые, Cu - кучевые, Cb - кучево-дождевые. Подробнее классификацию облаков см. в Атласе облаков (PDF).
  • T - Температура воздуха - температура, измеренная на высоте 2 м над землей.
  • Td - Температура точки росы - температура, при понижении до которой содержащийся в воздухе водяной пар достигнет насыщения.
  • f - Относительная влажность воздуха - влажноcть воздуха, измеренная на высоте 2 м над землей.
  • Te - Эффективная температура - температура, которую ощущает одетый по сезону человек в тени. Характеристика душности погоды. При расчете учитывается влияние влажности воздуха и скорости ветра на теплоощущения человека.
  • Tes - Эффективная температура на солнце - температура, которую ощущает человек, с поправкой на солнечный нагрев. Характеристика знойности погоды. Зависит от высоты солнца над горизонтом, облачности и скорости ветра. Ночью, в пасмурную погоду, а также при ветре 12 м/с и более поправка равна нулю.
  • P - Атмосферное давление - приведенное к уровню моря атмосферное давление.
  • Po - Атмосферное давление - измеренное на уровне метеостанции атмосферное давление.
  • Tmin - Минимальная температура - минимум температуры воздуха на высоте 2 м над землей.
  • Tmax - Максимальная температура - максимум температуры воздуха на высоте 2 м над землей.
  • R - Количество осадков - Количество выпавших осадков за период времени, мм. При наведении курсора мыши на число - период времени, за который выпало указанное количество осадков.
  • R24 - Количество осадков - Количество выпавших осадков за 24 часа, мм.
  • S - Снежный покров - Высота снежного покрова, см. При наведении курсора мыши на число - состояние снежного покрова и степень покрытия местности в баллах.